Regional Weather Roundup
Issued by NWS

Home | Current Version | Previous Version | Text Only | Print | Product List | Glossary Off
Versions: 1 2 3 4 5 6 7 8 9 10 11 12 13 14 15 16 17 18 19 20 21 22 23 24 25 26 27 28 29 30 31 32 33 34 35 36 37 38 39 40 41 42 43 44 45 46 47 48 49 50

000
ASUS43 KMPX 170701
RWRMN
WEATHER ROUNDUP FOR MINNESOTA
NATIONAL WEATHER SERVICE TWIN CITIES/CHANHASSEN MN
200 AM CDT WED SEP 17 2014


NOTE: "FAIR" INDICATES FEW OR NO CLOUDS BELOW 12,000 FEET WITH NO
SIGNIFICANT WEATHER AND/OR OBSTRUCTIONS TO VISIBILITY. N/A MEANS
CURRENT SKY AND/OR WEATHER CONDITIONS ARE NOT AVAILABLE.

MNZ060>063-068>070-170800-
   Twin Cities Metro

CITY           SKY/WX    TMP DP  RH WIND       PRES   REMARKS
TWIN CITIES    CLOUDY    56  47  71 SE6       29.97F
ST PAUL        CLOUDY    54  50  86 SE5       29.99F
CRYSTAL        CLOUDY    57  47  69 S3        29.96F
BLAINE         CLOUDY    55  50  82 S3        29.97F
LAKEVILLE      CLOUDY    52  48  87 CALM      29.98F
EDEN PRAIRIE   CLOUDY    57  48  72 S5        29.96F
SOUTH ST PAUL  CLOUDY    55  49  81 CALM      29.98F
LAKE ELMO      CLOUDY    48  46  93 CALM      29.99F
$$
MNZ001>005-007-008-013>017-022>024-027-028-170800-
   Northwest Minnesota

CITY           SKY/WX    TMP DP  RH WIND       PRES   REMARKS
BEMIDJI        CLEAR     47  41  79 SW5       29.92F
HALLOCK        CLEAR     45  41  87 S7        29.89S
ROSEAU         PTCLDY    54  45  71 SW10      29.87S
WARROAD        PTCLDY    54  45  71 SW9       29.87R
THIEF RVR FALL CLEAR     50  43  76 S6        29.91S
CROOKSTON      CLEAR     46  43  87 S6        29.91S
FOSSTON        CLEAR     45  41  87 S5        29.93S
DETROIT LAKES  CLEAR     52  46  82 SE6       29.93F
MOORHEAD       CLEAR     54  52  94 SE5       29.91F
PARK RAPIDS    CLEAR     48  42  80 S5        29.94F
MAHNOMEN       FAIR      48  43  81 SE7       29.91F
$$
MNZ006-009>011-018-025>026-170800-
   North Central Minnesota

CITY           SKY/WX    TMP DP  RH WIND       PRES   REMARKS
BAUDETTE       PTCLDY    53  42  66 SW10      29.86F
FLAG ISLAND    CLOUDY    57  48  72 N17       29.88R
INTL FALLS     CLOUDY    52  45  77 SW7       29.86F
WASKISH        PTCLDY    54  43  66 CALM      29.90S
BIG FORK       PTCLDY    45  43  93 S3        29.92F
LONGVILLE      CLEAR     43  41  93 CALM      29.94S
GRAND RAPIDS   CLEAR     48  39  71 S8        29.94F
CRANE LAKE     CLOUDY    54  45  71 S6        29.89S
ORR            CLOUDY    52  41  66 SW5       29.87F
COOK           MOCLDY    54  43  66 SW7       29.91F
WALKER         FAIR      47  42  80 CALM      29.93F
$$
MNZ012-019>021-037-170800-
   Northeast Minnesota

CITY           SKY/WX    TMP DP  RH WIND       PRES   REMARKS
DULUTH         PTCLDY    50  42  74 W5        29.95F
ELY            CLOUDY    52  45  76 SW6       29.90F
HIBBING        PTCLDY    44  40  85 S3        29.93F
EVELETH        PTCLDY    52  43  71 W6        29.94F
DULUTH HARBOR  CLEAR     52  46  82 SW7       29.95F
TWO HARBORS    PTCLDY    46  43  87 CALM      29.94F
SILVER BAY     CLOUDY    45  45 100 CALM      29.94F
GRAND MARAIS     N/A     49  44  83 NE6       29.95F
G MARAIS ARPRT CLOUDY    43  37  81 CALM      29.94F
$$
MNZ029>031-032-039>041-046>048-054>057-064-170800-
   West Central Minnesota

CITY           SKY/WX    TMP DP  RH WIND       PRES   REMARKS
FERGUS FALLS   PTCLDY    54  46  76 SE7       29.92F
WHEATON        CLEAR     48  46  93 CALM      29.93S
MORRIS         CLEAR     52  48  87 SE6       29.92F
ALEXANDRIA     CLOUDY    53  48  83 S7        29.95F
ELBOW LAKE     FAIR      52  47  84 SE6       29.92F
WADENA         CLEAR     46  43  87 CALM      29.94S
GLENWOOD       CLEAR     50  46  87 SE6       29.95F
APPLETON       CLEAR     57  48  72 S5        29.92F
BENSON         CLEAR     50  48  93 SE3       29.94S
ORTONVILLE     CLEAR     52  48  87 SE3       29.92F
MADISON        PTCLDY    57  52  82 SE5       29.93F
WILLMAR        CLOUDY    57  50  77 CALM      29.97R
$$
MNZ033>034-036-042>043-049>051-058-059-170800-
   Central Minnesota

CITY           SKY/WX    TMP DP  RH WIND       PRES   REMARKS
ST CLOUD       CLOUDY    55  48  77 CALM      29.96F
SAUK CENTRE    FAIR      49  46  89 SE3       29.95F
PAYNESVILLE    MOCLDY    46  46  99 CALM      29.96F
AITKIN         CLEAR     46  41  81 CALM      29.94F
PINE RIVER     CLEAR     39  39 100 CALM      29.98F
BRAINERD       CLEAR     44  43  96 CALM      29.96F
STAPLES        CLEAR     46  45  93 CALM      29.94F
LONG PRAIRIE   FAIR      46  45  93 CALM      29.95F
LITTLE FALLS   CLEAR     46  43  87 CALM      29.95F
LITCHFIELD     MOCLDY    57  54  88 CALM      29.96S
BUFFALO        CLOUDY    55  47  73 CALM      29.97F
MAPLE LAKE     CLOUDY    56  51  81 CALM      29.97F
$$
MNZ037-044-045-052-053-170800-
   East Central Minnesota

CITY           SKY/WX    TMP DP  RH WIND       PRES   REMARKS
PRINCETON      CLOUDY    54  48  82 CALM      29.97F
MORA           CLOUDY    45  45 100 CALM      29.98F
CAMBRIDGE      CLOUDY    55  45  67 CALM      29.95F
RUSH CITY      CLOUDY    45  44  95 CALM      29.98F
MOOSE LAKE     CLEAR     39  37  93 CALM      29.95F FOG
HINCKLEY       FAIR      41  41 100 CALM      29.97F
CLOQUET        CLEAR     48  41  76 SW7       29.95F
MCGREGOR       CLEAR     46  45  93 CALM      29.95F
$$
MNZ071>073-080-081-089-090-097-098-170800-
   Southwest Minnesota

CITY           SKY/WX    TMP DP  RH WIND       PRES   REMARKS
MONTEVIDEO     MOCLDY    57  52  82 S6        29.95S
GRANITE FALLS  CLOUDY    55  51  85 SE3       29.96F
CANBY          MOCLDY    60  49  67 SW7       29.93F
MARSHALL       CLOUDY    61  48  63 S8        29.93F
REDWOOD FALLS  CLOUDY    58  51  78 S5        29.96S
OLIVIA         CLOUDY    57  50  77 SE3       29.95F
PIPESTONE      MOCLDY    55  48  76 S3        29.96S
WINDOM         CLOUDY    55  48  76 S3        29.98S
WORTHINGTON    CLOUDY    57  48  72 S6        29.99S
JACKSON        CLOUDY    54  46  76 S6        29.99S
TRACY          CLOUDY    59  51  75 SW12      29.96S
SLAYTON        CLOUDY    56  50  78 CALM      29.98S
$$
MNZ065>067-074>077-082>085-091>093-170800-
   South Central Minnesota

CITY           SKY/WX    TMP DP  RH WIND       PRES   REMARKS
MANKATO        CLOUDY    55  45  67 S7        29.98F
NEW ULM        CLOUDY    57  50  77 S5        29.97S
ST JAMES       CLOUDY    55  48  76 S3        29.99S
FAIRMONT       CLOUDY    54  45  71 S7        29.99S
GLENCOE        CLOUDY    59  47  66 S5        29.96F
FARIBAULT      CLOUDY    57  46  67 S6        30.00S
OWATONNA       CLOUDY    55  46  71 S5        30.00F
WASECA         CLOUDY    54  43  66 S5        30.01S
ALBERT LEA     CLOUDY    54  46  76 S6        30.00F
$$
MNZ078>079-086>088-094>096-170800-
   Southeast Minnesota

CITY           SKY/WX    TMP DP  RH WIND       PRES   REMARKS
ROCHESTER      CLOUDY    48  45  89 S7        30.02F
RED WING       CLOUDY    52  48  87 CALM      29.99F
STANTON        CLOUDY    55  47  75 S3        29.98F
DODGE CENTER   CLOUDY    52  46  82 S6        30.01F
WINONA         CLEAR     48  48 100 CALM      30.03F
AUSTIN         PTCLDY    46  45  93 SE3       30.01F
PRESTON        CLEAR     46  46  99 S3        30.04S
$$
ABBREVIATIONS USED IN REMARKS
   TC - TEMPERATURES IN CELSIUS
  WCI - WIND CHILL INDEX
   HX - HEAT INDEX
  VSB - VISIBILITY
$$



USA.gov is the U.S. government's official web portal to all federal, state and local government web resources and services.